Location: Heilbronn
(49.1548°N, 9.2780°E)
Time: 22:45:21
(UTC+02:00)

ISS - Visible Passes

Search period start: 18 October 2019 00:00
Search period end: 27 October 2019 23:00
Orbit: 411 x 421 km, 51.6° (Epoch: 19 October)

Date Brightness Start Highest point End Pass type
(mag) Time Alt. Az. Time Alt. Az. Time Alt. Az.
24 Oct -0.7 06:50:11 10° SSE 06:51:52 13° SE 06:53:34 10° ESE visible
26 Oct -1.8 06:48:07 10° SSW 06:51:03 28° SE 06:54:00 10° E visible
27 Oct -1.3 05:00:51 13° S 05:02:36 19° SE 05:05:03 10° E visible
